"Pseudo-MPEC" for C3ZRNH2

Created 2020 Nov 23 7:07:17 UT using Find_Orb

Click here for an explanation of pseudo-MPECs

 
 Astrometry: 
     C3ZRNH2  C2020 11 21.27989105 21 28.46 +46 01 30.0    ~BL7b 20.31GVNEOCPG96
     C3ZRNH2  C2020 11 21.28517805 21 27.27 +46 01 09.6    ~BL7b 20.26GVNEOCPG96
     C3ZRNH2  C2020 11 21.29046105 21 26.00 +46 00 49.3    ~BL7b 20.70GVNEOCPG96
     C3ZRNH2 KC2020 11 21.33340105 21 15.88 +45 58 04.0    ~BL8M 21.02GVNEOCPI52
     C3ZRNH2 KC2020 11 21.33493605 21 15.49 +45 57 58.1    ~BL8M 20.31GVNEOCPI52
     C3ZRNH2 KC2020 11 21.38984705 21 02.39 +45 54 23.5    ~BL9b 20.00GVNEOCPI52
     C3ZRNH2 KC2020 11 21.39138205 21 02.02 +45 54 16.8    ~BL9b 20.37GVNEOCPI52
     C3ZRNH2 KC2020 11 21.39291705 21 01.69 +45 54 10.9    ~BL9b 20.56GVNEOCPI52
     C3ZRNH2 1C2020 11 21.80770 05 19 37.55 +45 26 14.7    ~BM8q 21.8 VVNEOCP033
     C3ZRNH2 HC2020 11 21TD5'c4Wk)eT-#Astrometry(X;ps4(;yO2T.[U2iS!q5N-smpD^f204
     C3ZRNH2 HC2020 11 21b._P6:F5i2Cwmx/]Qd.H6Us*KyJredacted;7@fF=\@=L/Oo`BHI204
     C3ZRNH2 2C2020 11 21%y3gG3$W`.\_b,Q)sQ/jg)-9l\cR$e!click^4K@H)wb73@S]9^FZ84
     C3ZRNH2 2C2020 11 21]KOj?A(M^GNve++\'Cp)wj\hereZ]@@EUddPjF#Nm+KYGMfX!mUKZ84
     C3ZRNH2 2C2020 11 21vRfor;22x,8rQG\wLT0_%CaRaMe@@Aps\(_44R,?yh[Qnx_IbEN+Z84
     C3ZRNH2 1C2020 11 22.00212 05 18 53.48 +45 13 31.9    ~BM8q 21.3 VVNEOCP033
     C3ZRNH2 1C2020 11 22.00397 05 18 53.03 +45 13 24.0    ~BM8q 21.5 VVNEOCP033
     C3ZRNH2 bC2020 11 22,[F3F=S@^#mu+Scs+p8^8N5au0ht8MZsMGsD:)#aXb:A[ykM^^!ML01
     C3ZRNH2 bC2020 11 22y'/ovGv0uJWnn1bQhJc*+eP9Vhn)gv,vE\xBGMFXunj82c=ZH\RyL01
     C3ZRNH2 bC2020 11 22O.gDlUtx+?4]a[0a:,V^DVJ`sAtBX'A-ib+[explanationq%3WyL01
     C3ZRNH2 bC2020 11 22H::]%Qe25ch:#a[w]m$XUnA`)l@=I??YC5TbGCKi7N+M%h@*GuRBL01
     C3ZRNH2 KC2020 11 22.26795305 17 58.80 +44 55 45.8    ~BM77 21.18GVNEOCPI52
     C3ZRNH2 KC2020 11 22.27179005 17 57.92 +44 55 30.7    ~BM77 21.34GVNEOCPI52
     C3ZRNH2 KC2020 11 22.27562705 17 56.99 +44 55 15.2    ~BM77 20.29GVNEOCPI52
     C3ZRNH2 KC2020 11 22.27946305 17 56.11 +44 55 00.1    ~BM77 21.18GVNEOCPI52
     C3ZRNH2 KC2020 11 23.25424405 14 28.68 +43 47 18.9    ~BN6b 21.03GVNEOCPI52
     C3ZRNH2 KC2020 11 23.25676705 14 28.05 +43 47 08.0    ~BN6b 20.88GVNEOCPI52

Station data:
(033) Karl Schwarzschild Observatory, Tautenburg  (N50.980140 E11.711240)
   Germany. 1.3-m Schmidt.
(204) Schiaparelli Observatory  (N45.867933 E8.770800)  Italy.  Observer L.
   Buzzi. 0.60-m f/4.64 Newtonian + CCD.
(G96) Mt. Lemmon Survey  (N32.442754 W110.788720)  US/Arizona.  Observers T.
   A. Pruyne, B. M. Africano, E. J. Christensen, G. A. Farneth, D. C. Fuls,
   A. R. Gibbs, A. D. Grauer, H. Gröller, J. A. Johnson, R. A. Kowalski, S.
   M. Larson, G. J. Leonard, D. Rankin, R. L. Seaman, F. C. Shelly. 1.5-m
   reflector + 10K CCD.
(I52) Steward Observatory, Mt. Lemmon Station  (N32.442547 W110.788920)
   US/Arizona.  Observers T. A. Pruyne, B. M. Africano, E. J. Christensen, G.
   A. Farneth, D. C. Fuls, A. R. Gibbs, A. D. Grauer, H. Gröller, J. A.
   Johnson, R. A. Kowalski, S. M. Larson, G. J. Leonard, D. Rankin, R. L.
   Seaman, F. C. Shelly. 1.0-m reflector + CCD.
(L01) Višnjan Observatory, Tičan  (N45.290900 E13.749300)  Croatia.
   Observers K. Korlević, E. Pettarin. Measurer E. Pettarin. 1.0-m f/2.9
   reflector + CCD.
(Z84) Calar Alto-Schmidt  (N37.224049 W2.548210)  Spain.  Observer E. Schwab.
   Measurers E. Schwab, D. Koschny, M. Micheli. 0.8-m f/3 Schmidt + CCD.

Orbital elements:  C3ZRNH2
   Perihelion 2020 Jun 1.122581 +/- 0.496 TT =  2:56:31 (JD 2459001.622581)
Epoch 2020 Nov 23.0 TT = JDT 2459176.5   Earth MOID: 0.0181   AutoNEOCP
M 155.95866646 +/- 0.49             (J2000 ecliptic)
n   0.89181706 +/- 0.00103          Peri.    8.78938 +/- 0.43
a   1.06893721 +/- 0.00082          Node   255.56244 +/- 0.012
e   0.0683110 +/- 0.000222          Incl.   14.29511 +/- 0.10
P   1.11/403.66d           H 23.6   G  0.15   U  8.1  
q 0.99591703 +/- 0.000563    Q 1.14195739 +/- 0.00109
From 26 observations 2020 Nov. 21-23 (47.4 hr); mean residual 0".25
Residuals in arcseconds: 
201121 G96  .27-  .23+    201121 204  .23-  .63-    201122 L01  .11-  .08+    
201121 G96  .26+  .03-    201121 204  .37-  .36-    201122 L01  .39+  .54+    
201121 G96  .02-  .18-    201121 Z84  .10+  .04-    201122 I52  .18-  .06-    
201121 I52  .43+  .24-    201121 Z84  .13+  .24+    201122 I52  .06+  .09+    
201121 I52  .17+  .19-    201121 Z84  .13-  .18+    201122 I52  .21-  .14-    
201121 I52  .13-  .39+    201122 033  .10-  .30+    201122 I52  .05+  .05+    
201121 I52  .18-  .23-    201122 033  .31-  .17-    201123 I52  .33+  .16+    
201121 I52  .18+  .05-    201122 L01  .17+  .11+    201123 I52  .07-  .30-    
201121 033  .48+  .35+    201122 L01  .17-  .04-    

Ephemerides (geocentric):
Date (UTC) HH   RA              Dec         delta   r     elong  mag " sig PA
---- -- -- --  -------------   -----------  ------ ------ -----  --- ---- ---
2020 11 23 07  05 14 18.264   +43 44 34.80  .16643 1.1365 151.5 21.1 .197  77
2020 11 23 08  05 14 09.368   +43 41 37.39  .16635 1.1365 151.6 21.1 .204  76
2020 11 23 09  05 14 00.472   +43 38 39.69  .16627 1.1365 151.7 21.1 .211  75
2020 11 23 10  05 13 51.575   +43 35 41.69  .16619 1.1365 151.8 21.1 .218  74
2020 11 23 11  05 13 42.679   +43 32 43.39  .16611 1.1366 151.9 21.1 .226  73
2020 11 23 12  05 13 33.782   +43 29 44.79  .16603 1.1366 151.9 21.1 .234  72
2020 11 23 13  05 13 24.886   +43 26 45.90  .16595 1.1366 152.0 21.1 .242  71
2020 11 23 14  05 13 15.989   +43 23 46.71  .16587 1.1366 152.1 21.1 .251  70
2020 11 23 15  05 13 07.092   +43 20 47.22  .16579 1.1366 152.2 21.1 .260  69
2020 11 23 16  05 12 58.195   +43 17 47.44  .16571 1.1366 152.3 21.0 .269  68
2020 11 23 17  05 12 49.299   +43 14 47.36  .16563 1.1367 152.4 21.0 .278  67
2020 11 23 18  05 12 40.402   +43 11 46.99  .16555 1.1367 152.4 21.0 .288  66
2020 11 23 19  05 12 31.506   +43 08 46.32  .16547 1.1367 152.5 21.0 .297  66
2020 11 23 20  05 12 22.610   +43 05 45.36  .16539 1.1367 152.6 21.0 .308  65
2020 11 23 21  05 12 13.714   +43 02 44.10  .16531 1.1367 152.7 21.0 .318  64
2020 11 23 22  05 12 04.819   +42 59 42.55  .16523 1.1367 152.8 21.0 .329  63
2020 11 23 23  05 11 55.924   +42 56 40.70  .16515 1.1368 152.9 21.0 .340  63
2020 11 24 00  05 11 47.029   +42 53 38.56  .16508 1.1368 153.0 21.0 .351  62
2020 11 24 01  05 11 38.135   +42 50 36.13  .16500 1.1368 153.0 21.0 .362  61
2020 11 24 02  05 11 29.242   +42 47 33.41  .16492 1.1368 153.1 21.0 .374  61
2020 11 24 03  05 11 20.349   +42 44 30.39  .16484 1.1368 153.2 21.0 .386  60
2020 11 24 04  05 11 11.457   +42 41 27.08  .16477 1.1368 153.3 21.0 .399  59
2020 11 24 05  05 11 02.565   +42 38 23.48  .16469 1.1369 153.4 21.0 .411  59
2020 11 24 06  05 10 53.674   +42 35 19.59  .16461 1.1369 153.5 21.0 .424  58
2020 11 24 07  05 10 44.784   +42 32 15.41  .16454 1.1369 153.5 21.0 .437  58
2020 11 24 08  05 10 35.895   +42 29 10.94  .16446 1.1369 153.6 21.0 .451  57
2020 11 24 09  05 10 27.007   +42 26 06.17  .16439 1.1369 153.7 21.0 .464  57
2020 11 24 10  05 10 18.120   +42 23 01.12  .16431 1.1369 153.8 21.0 .478  56
2020 11 24 11  05 10 09.233   +42 19 55.78  .16424 1.1370 153.9 21.0 .493  56
2020 11 24 12  05 10 00.348   +42 16 50.15  .16416 1.1370 154.0 21.0 .507  55
2020 11 24 13  05 09 51.464   +42 13 44.23  .16409 1.1370 154.1 21.0 .522  55
2020 11 24 14  05 09 42.581   +42 10 38.03  .16402 1.1370 154.1 21.0 .537  54
2020 11 24 15  05 09 33.699   +42 07 31.53  .16394 1.1370 154.2 21.0 .552  54
2020 11 24 16  05 09 24.818   +42 04 24.75  .16387 1.1370 154.3 21.0 .568  53
2020 11 24 17  05 09 15.939   +42 01 17.68  .16380 1.1371 154.4 21.0 .584  53
2020 11 24 18  05 09 07.061   +41 58 10.33  .16372 1.1371 154.5 21.0 .600  53
2020 11 24 19  05 08 58.184   +41 55 02.69  .16365 1.1371 154.6 21.0 .616  52
2020 11 24 20  05 08 49.309   +41 51 54.77  .16358 1.1371 154.7 21.0 .633  52
2020 11 24 21  05 08 40.436   +41 48 46.56  .16351 1.1371 154.7 21.0 .650  51
2020 11 24 22  05 08 31.563   +41 45 38.07  .16343 1.1371 154.8 21.0 .667  51
2020 11 24 23  05 08 22.693   +41 42 29.29  .16336 1.1372 154.9 20.9 .684  51
2020 11 25 00  05 08 13.824   +41 39 20.23  .16329 1.1372 155.0 20.9 .702  50
2020 11 25 01  05 08 04.956   +41 36 10.89  .16322 1.1372 155.1 20.9 .720  50
2020 11 25 02  05 07 56.091   +41 33 01.26  .16315 1.1372 155.2 20.9 .738  50
2020 11 25 03  05 07 47.227   +41 29 51.36  .16308 1.1372 155.3 20.9 .757  49
2020 11 25 04  05 07 38.365   +41 26 41.17  .16301 1.1372 155.3 20.9 .775  49
2020 11 25 05  05 07 29.505   +41 23 30.70  .16294 1.1372 155.4 20.9 .794  49
2020 11 25 06  05 07 20.647   +41 20 19.95  .16287 1.1373 155.5 20.9 .814  49